[Iaude] MPEC T61: 2016 TV10 [a=2.23,e=0.63,i=8.6,H=24.3]

mpec at si.edu mpec at si.edu
Fri Oct 7 12:05:39 EDT 2016


M.P.E.C. 2016-T61                                Issued 2016 Oct. 7, 16:00 UT
 
     The Minor Planet Electronic Circulars contain information on unusual
         minor planets and routine data on comets.  They are published
    on behalf of Division F of the International Astronomical Union by the
          Minor Planet Center, Smithsonian Astrophysical Observatory,
                          Cambridge, MA 02138, U.S.A.

             Prepared using the Tamkin Foundation Computer Network

                              MPC at CFA.HARVARD.EDU
            URL http://www.minorplanetcenter.net/    ISSN 1523-6714


                                   2016 TV10
 
Observations:
     K16T10V*'C2016 10 05.12019 01 07 05.137+13 28 50.95         21.2 RUET061309
     K16T10V 'C2016 10 05.12141 01 07 05.036+13 28 54.77         21.5 RUET061309
     K16T10V 'C2016 10 05.12263 01 07 04.916+13 28 58.75         21.4 RUET061309
     K16T10V 'C2016 10 05.12384 01 07 04.827+13 29 02.58         21.4 RUET061309
     K16T10V 'C2016 10 05.12505 01 07 04.738+13 29 06.10         21.6 RUET061309
     K16T10V 'C2016 10 05.12626 01 07 04.629+13 29 10.07         21.5 RUET061309
     K16T10V 'C2016 10 05.12748 01 07 04.546+13 29 13.55         21.5 RUET061309
     K16T10V 'C2016 10 05.12991 01 07 04.345+13 29 21.26         21.3 RUET061309
     K16T10V 'C2016 10 05.13112 01 07 04.230+13 29 25.11         21.2 RUET061309
     K16T10V  C2016 10 06.34712 01 05 34.40 +14 34 52.6          21.6 RoET061926
     K16T10V  C2016 10 06.35603 01 05 33.54 +14 35 23.1          21.6 RoET061926
     K16T10V  C2016 10 06.36497 01 05 32.73 +14 35 53.8          21.2 RoET061926
     K16T10V KC2016 10 07.43775 01 04 03.38 +15 40 19.4          21.3 RoET061291
     K16T10V KC2016 10 07.44108 01 04 03.07 +15 40 32.0          21.3 RoET061291
 
Observer details:
291 LPL/Spacewatch II.  Observer J. V. Scotti.  1.8-m f/2.7 reflector + CCD.
309 Cerro Paranal.  Observers M. Altmann, T. Prusti.  Measurers C. Barache,
    S. Bouquillon, T. Carlucci, F. Taris.  2.6-m f/5.5 Ritchey-Chretien + CCD.
926 Tenagra II Observatory.  Observers M. Schwartz, P. R. Holvorcem.  Measurer
    M. Schwartz.  0.81-m f/7 Ritchey-Chretien + CCD.
 
Orbital elements:
2016 TV10                                                Earth MOID = 0.0700 AU
Epoch 2016 July 31.0 TT = JDT 2457600.5                 MPC
M 321.84463              (2000.0)            P               Q
n   0.29665458     Peri.   87.20535     -0.06939385     -0.99743069
a   2.2265648      Node     6.85037     +0.84574603     -0.06827993
e   0.6343758      Incl.    8.57805     +0.52905401     -0.02167656
P   3.32           H   24.3           G   0.15           U   9
Residuals in seconds of arc
161005 309  0.0   0.0     161005 309  0.1-  0.1+    161006 926  0.3-  0.0
161005 309  0.0   0.0     161005 309  0.2+  0.2-    161006 926  0.1+  0.1+
161005 309  0.3-  0.1+    161005 309  0.2+  0.1-    161007 291  0.1-  0.1-
161005 309  0.1-  0.2+    161005 309  0.0   0.0     161007 291  0.2+  0.1+
161005 309  0.1+  0.1-    161006 926  0.1+  0.1-

Ephemeris:
2016 TV10                a,e,i = 2.23, 0.63, 9                   q = 0.8141
Date    TT    R. A. (2000) Decl.     Delta      r     Elong.  Phase     V
2016 09 07    01 12 15.7 +02 30 44   0.5186  1.4688   146.7    22.2    24.8
...
2016 09 22    01 14 25.2 +06 14 55   0.3398  1.3275   159.6    15.3    23.4
...
2016 09 30    01 11 28.3 +09 51 17   0.2560  1.2519   166.6    10.6    22.5
...
2016 10 06    01 06 01.4 +14 15 29   0.1986  1.1957   169.8     8.5    21.8
2016 10 07    01 04 42.7 +15 13 30   0.1895  1.1864   169.7     8.6    21.7
2016 10 08    01 03 14.9 +16 16 53   0.1806  1.1771   169.4     9.0    21.5
...
2016 10 14    00 49 40.4 +25 18 32   0.1307  1.1222   161.6    16.3    21.0
...
2016 10 22    23 48 52.8 +51 32 39   0.08024 1.0514   132.9    43.9    20.6
...
2016 11 06    14 27 13.5 +40 16 59   0.1140  0.9330    56.4   117.7    24.1

A. U. Tomatic                (C) Copyright 2016 MPC           M.P.E.C. 2016-T61




More information about the Iaude mailing list